Hourly Data Report for July 12, 2017

PITT MEADOWS CS
BRITISH COLUMBIA

49°12'29.964" N
122°41'24.076" W
5.00 m
1106178
71775
WMM

Download Data

Hourly Data (July 2017)
Hourly Data Report for July 12, 2017
TIME
LST
Temp Definition
°C
Dew Point Definition
°C
Rel Hum Definition
%
Precip. Amount Definition
mm

Wind Dir Definition
10's deg

Wind Spd Definition
km/h
Visibility Definition
km
Stn Press Definition
kPa
Hmdx Definition


Wind Chill Definition


Weather Definition


00:00 15.3 10.9 75 0.0 11 3   101.58     LegendNANA
01:00 14.4 11.2 82 0.0 9 4   101.58     LegendNANA
02:00 13.6 10.7 83 0.0   0   101.58     LegendNANA
03:00 12.8 10.8 88 0.0 0 1   101.59     LegendNANA
04:00 12.7 10.8 88 0.0 14 1   101.61     LegendNANA
05:00 12.6 10.8 89 0.0 10 2   101.66     LegendNANA
06:00 15.2 11.0 76 0.0 10 6   101.69     LegendNANA
07:00 17.0 9.7 62 0.0 13 4   101.72     LegendNANA
08:00 18.5 9.7 56 0.0 13 3   101.73     LegendNANA
09:00 19.7 9.1 50 0.0 14 8   101.73     LegendNANA
10:00 21.2 9.3 47 0.0 14 8   101.72     LegendNANA
11:00 21.3 10.0 48 0.0 23 7   101.71     LegendNANA
12:00 22.2 9.9 45 0.0 21 5   101.68     LegendNANA
13:00 23.3 10.9 46 0.0 22 8   101.65 25   LegendNANA
14:00 23.5 11.5 47 0.0 25 9   101.62 26   LegendNANA
15:00 24.0 11.9 47 0.0 28 6   101.58 26   LegendNANA
16:00 24.1 12.0 47 0.0 21 8   101.52 26   LegendNANA
17:00 23.2 11.2 47 0.0 23 8   101.46 25   LegendNANA
18:00 23.1 10.4 45 0.0 20 7   101.42 25   LegendNANA
19:00 22.0 10.2 47 0.0 23 6   101.40     LegendNANA
20:00 20.2 9.9 51 0.0 24 4   101.41     LegendNANA
21:00 17.0 11.0 68 0.0 31 1   101.42     LegendNANA
22:00 17.4 11.7 69 0.0 0 1   101.45     LegendNANA
23:00 16.3 12.1 76 0.0 10 4   101.45     LegendNANA

Notes on Data Quality.

Legend

  • E = Estimated
  • M = Missing
  • NA = Not Available*
  • [empty] = Indicates an unobserved value
Date modified: